Regional Weather Roundup
Issued by NWS

Home | Current Version | Previous Version | Graphics & Text | Print | Product List | Glossary On
Versions: 1 2 3 4 5 6 7 8 9 10 11 12 13 14 15 16 17 18 19 20 21 22 23 24 25 26 27 28 29 30 31 32 33 34 35 36 37 38 39 40 41 42 43 44 45 46 47 48 49 50
000
ASUS43 KLOT 241004
RWRIL

ILLINOIS REGIONAL WEATHER ROUNDUP
NATIONAL WEATHER SERVICE CHICAGO/ROMEOVILLE IL
500 AM CDT WED AUG 24 2016

NOTE: "FAIR" INDICATES FEW OR NO CLOUDS BELOW 12,000 FEET WITH NO
SIGNIFICANT WEATHER AND/OR OBSTRUCTIONS TO VISIBILITY.

* THESE STATIONS ARE NOT UNDER NWS QUALITY CONTROL. THEY ALSO MAY NOT
  REPORT WEATHER SUCH AS PRECIPITATION OR FOG.

ILZ001-002-007-009-015-016-024-241100-
NORTHWEST ILLINOIS

CITY           SKY/WX    TMP DP  RH WIND       PRES   REMARKS
MOLINE         RAIN      73  70  90 SE12      29.91F
STERLING*      TSTM      71  70  96 VRB3      29.97F FOG
SAVANNA*       CLOUDY    71  70  96 S8        29.92F THUNDER
$$

ILZ003-004-008-010-011-017-018-241100-
NORTH CENTRAL ILLINOIS

CITY           SKY/WX    TMP DP  RH WIND       PRES   REMARKS
ROCKFORD       CLOUDY    71  67  87 S13       29.97F
FREEPORT*      CLOUDY    70  68  95 S17       29.96F
ROCHELLE*      RAIN      69  68  96 S16G25    29.98F
$$

ILZ005-006-012>014-019>023-241100-
NORTHEAST ILLINOIS

CITY           SKY/WX    TMP DP  RH WIND       PRES   REMARKS
CHICAGO-OHARE  MOCLDY    71  65  81 S12       30.00F
CHICAGO-MIDWAY CLOUDY    73  64  73 S13       30.01F
AURORA         CLOUDY    69  66  90 S12       30.01F
LANSING*       CLOUDY    70  62  78 S12       30.04F
JOLIET*        MOCLDY    71  68  91 S10       30.02F
WAUKEGAN       CLOUDY    72  66  81 S14       29.97F
DUPAGE AIRPORT CLOUDY    71  66  84 S15G22    30.00F
KANKAKEE*      CLOUDY    70  65  84 S10G16    30.05F
WHEELING       MOCLDY    72  65  78 S14       30.01F
MORRIS*        CLOUDY    67  66  94 SE6       30.01S
ROMEOVILLE*    PTCLDY    68  64  89 S9        30.02F
NORTHERLY ISL    N/A     73  63  70 S10         N/A
$$

LMZ740>746-241100-
SOUTHERN LAKE MICHIGAN

STATION/POSITION SKY/WX   TEMP    WIND        PRES    VSBY  WAVE
                          AIR SEA DIR/SP/G                  HT/PER
                          (F)     (DEG/KT/KT) (MB)    (MI)  (FT/S)
SOUTHERN BUOY              74 75  170/ 23/ 27 1015.8          5/ 5
WILMETTE HARBOR            73 71  220/ 14/ 19   N/A           2/ 4
HARRISON CRIB              73     200/ 23/ 26   N/A
BURNHAM HARBOR             72     190/ 10/ 20   N/A
CALUMET HARBOR             72     180/ 12/ 17 1017.0F
BURNS HARBOR               71     180/ 11/ 20 1018.3F
MICHIGAN CITY              70     150/  9/ 11   N/A
MICHIGAN CITY 6N           71 73  180/ 12/ 14   N/A           1/ 2
ST. JOSEPH                 72 75  160/ 14/ 17 1018.2F         2/ 3
$$

ILZ025>027-034>036-040-047-049-050-058-095>099-241100-
WEST-CENTRAL ILLINOIS

CITY           SKY/WX    TMP DP  RH WIND       PRES   REMARKS
QUINCY         CLOUDY    75  74  96 S10       29.96F
GALESBURG*     TSTM      72  69  93 SE12      29.95F
MACOMB*        CLOUDY    72  71  97 S10       29.97F
JACKSONVILLE*  CLOUDY    74  72  92 S7        29.99F
PITTSFIELD*    CLOUDY    75  73  93 S10       30.00F
$$

ILZ028>032-037-038-041>044-048-051>054-059>061-241100-
CENTRAL ILLINOIS

CITY           SKY/WX    TMP DP  RH WIND       PRES   REMARKS
PONTIAC        PTCLDY    71  69  96 S7        30.03F
BLOOMINGTON    CLOUDY    71  69  93 S15       30.04F
DECATUR        CLOUDY    73  70  90 S10       30.06F
PEORIA         CLOUDY    73  71  93 S10       29.98F
LACON*         CLOUDY    71  69  94 S9        29.98F
LINCOLN*       CLOUDY    73  72  97 S8        30.02F
SPRINGFIELD    CLOUDY    75  72  90 S13       30.02F
TAYLORVILLE    CLOUDY    72  71  97 S10G17    30.05F
$$

ILZ033-039-045-046-055>057-062-063-241100-
EAST-CENTRAL ILLINOIS

CITY           SKY/WX    TMP DP  RH WIND       PRES   REMARKS
CHAMPAIGN      CLOUDY    70  68  93 S10       30.07F
RANTOUL*       CLOUDY    71  69  94 S7        30.07F
MATTOON        CLOUDY    70  68  93 S8        30.08F
PARIS*         MOCLDY    69  67  95 S3        30.11F
$$

ILZ079-100>102-241100-
SOUTHWEST ILLINOIS

CITY           SKY/WX    TMP DP  RH WIND       PRES   REMARKS
ALTON          MOCLDY    73  72  95 S7        30.05S
BELLEVILLE     CLOUDY    74  74 100 S7        30.05F
CAHOKIA*       CLOUDY    75  72  90 S7        30.05S
SPARTA*        CLOUDY    73  73  97 S8        30.09F
$$

ILZ064>066-069>071-074>076-080>082-084>086-088>090-092>094-241100-
SOUTH-CENTRAL ILLINOIS

CITY           SKY/WX    TMP DP  RH WIND       PRES   REMARKS
CARBONDALE     CLOUDY    74  71  91 S7        30.11F
EFFINGHAM*     CLOUDY    72  72 100 SE7       30.10F
MARION         CLOUDY    75  73  94 S7        30.12F
MT. VERNON     PTCLDY    73  66  78 S8        30.11F
CENTRALIA*     MOCLDY    74  73  97 S12       30.07F
SALEM*         MOCLDY    74  72  91 S8        30.08F
$$

ILZ067-068-072-073-078-083-087-091-241100-
SOUTHEAST ILLINOIS

CITY           SKY/WX    TMP DP  RH WIND       PRES   REMARKS
LAWRENCEVILLE  PTCLDY    70  68  93 S7        30.13F
FLORA*         MOCLDY    73  71  95 S8        30.10F
FAIRFIELD*     PTCLDY    72  71  97 S6        30.11F
HARRISBURG*    PTCLDY    72  71  97 S3        30.13F
CARMI*         PTCLDY    70  70 100 CALM      30.13S FOG
$$

ABBREVIATIONS USED IN REMARKS
   TC - TEMPERATURE IN CELSIUS
  WCI - WIND CHILL INDEX
   HX - HEAT INDEX
  VSB - VISIBILITY
$$




USA.gov is the U.S. government's official web portal to all federal, state and local government web resources and services.